Weather History for Columbus, OH

Change the Weather History Date:

Thursday, June 13, 2013

  Actual Average Record
Temperature  
Mean Temperature 74 °F 71 °F  
Max Temperature 82 °F 81 °F 95 °F (1956)
Min Temperature 66 °F 61 °F 46 °F (1903)
Degree Days  
Heating Degree Days 0 1  
Month to date heating degree days 6 17  
Since 1 June heating degree days 6 17  
Since 1 July heating degree days 5160 5244  
Cooling Degree Days 9 7  
Month to date cooling degree days 78 71  
Year to date cooling degree days 239 153  
Since 1 June cooling degree days 78 71  
Growing Degree Days 22 (Base 50)    
Moisture  
Dew Point 62 °F    
Average Humidity 70    
Maximum Humidity 100    
Minimum Humidity 40    
Precipitation  
Precipitation 0.84 in 0.13 in 2.71 in (2003)
Month to date precipitation 3.11 1.80  
Year to date precipitation 15.58 17.37  
Snow  
Snow 0.00 in 0.00 in 0.00 in ()
Month to date snowfall 0.0 0.0  
Since 1 June snowfall 0.0 0.0  
Since 1 July snowfall 41.2 26.7  
Snow Depth 0.00 in    
Sea Level Pressure  
Sea Level Pressure 29.70 in    
Wind  
Wind Speed 11 mph (NW)    
Max Wind Speed 38 mph    
Max Gust Speed 46 mph    
Visibility 9 miles    
Events Rain , Thunderstorm    
T = Trace of Precipitation, MM = Missing Value Source: NWS Daily Summary

Daily Weather History Graph

Daily Weather History Graph

Search for Another Location

Airport:

Trip Planner

Search our weather history database for the weather conditions in past years. The results will help you decide how hot, cold, wet, or windy it might be!

Date:

Astronomy

Jun. 13, 2013 Rise Set
Actual Time 6:02 AM EDT 9:01 PM EDT
Civil Twilight 5:29 AM EDT 9:34 PM EDT
Nautical Twilight 4:47 AM EDT 10:15 PM EDT
Astronomical Twilight 3:59 AM EDT 11:04 PM EDT
Moon 10:37 AM EDT (6/13) No Moon Set
Length of Visible Light 16h 04m
Length of Day
14h 59m
Waxing Crescent, 21% of the Moon is Illuminated
Jun 13
Waxing Crescent
Jun 16
First Quarter
Jun 23
Full
Jun 30
Last Quarter
Jul 8
New

Hourly Weather History & Observations

Time (EDT) Temp. Heat Index Dew Point Humidity Pressure Visibility Wind Dir Wind Speed Gust Speed Precip Events Conditions
12:51 AM 81.0 °F 84.9 °F 71.1 °F 72% 29.66 in 10.0 mi South 11.5 mph - N/A   Overcast
1:51 AM 81.0 °F 84.9 °F 71.1 °F 72% 29.68 in 10.0 mi SW 18.4 mph 29.9 mph N/A   Overcast
1:55 AM 78.8 °F - 66.2 °F 65% 29.72 in 8.0 mi WNW 29.9 mph 46.0 mph 0.00 in Rain Light Rain
2:03 AM 69.8 °F - 64.4 °F 83% 29.71 in 4.0 mi NW 15.0 mph 42.6 mph 0.03 in Rain , Thunderstorm Heavy Thunderstorms and Rain
2:43 AM 68.0 °F - 66.2 °F 94% 29.71 in 8.0 mi WNW 6.9 mph - 0.35 in Rain , Thunderstorm Light Thunderstorms and Rain
2:51 AM 66.9 °F - 64.9 °F 93% 29.68 in 8.0 mi Variable 4.6 mph - 0.37 in Rain , Thunderstorm Light Thunderstorms and Rain
3:51 AM 66.9 °F - 66.0 °F 97% 29.63 in 8.0 mi Calm Calm - 0.14 in Rain , Thunderstorm Light Thunderstorms and Rain
4:29 AM 66.2 °F - 66.2 °F 100% 29.69 in 7.0 mi SSW 5.8 mph - 0.12 in Rain , Thunderstorm Light Thunderstorms and Rain
4:51 AM 66.9 °F - 66.0 °F 97% 29.64 in 5.0 mi SSW 10.4 mph - 0.21 in Rain , Thunderstorm Light Thunderstorms and Rain
5:12 AM 66.2 °F - 66.2 °F 100% 29.58 in 10.0 mi SE 6.9 mph - 0.03 in Rain Light Rain
5:51 AM 66.9 °F - 64.9 °F 93% 29.59 in 10.0 mi SSW 16.1 mph - 0.04 in Rain Light Rain
6:05 AM 66.2 °F - 64.4 °F 94% 29.59 in 10.0 mi SSW 10.4 mph - 0.00 in   Overcast
6:51 AM 66.9 °F - 64.9 °F 93% 29.59 in 10.0 mi SW 4.6 mph - 0.00 in   Mostly Cloudy
7:51 AM 69.1 °F - 66.0 °F 90% 29.62 in 10.0 mi WSW 3.5 mph - N/A   Overcast
8:20 AM 69.8 °F - 66.2 °F 88% 29.64 in 10.0 mi WNW 9.2 mph - N/A   Overcast
8:51 AM 71.1 °F - 66.9 °F 87% 29.61 in 10.0 mi NW 9.2 mph - N/A   Overcast
9:51 AM 70.0 °F - 64.0 °F 81% 29.62 in 10.0 mi NW 15.0 mph 21.9 mph N/A   Overcast
10:51 AM 68.0 °F - 64.9 °F 90% 29.65 in 6.0 mi NNW 9.2 mph - 0.04 in Rain Light Rain
11:17 AM 68.0 °F - 64.4 °F 88% 29.68 in 5.0 mi NNW 16.1 mph - 0.04 in Rain Light Rain
11:51 AM 66.9 °F - 66.0 °F 97% 29.68 in 10.0 mi North 13.8 mph 25.3 mph 0.04 in   Overcast
12:08 PM 66.2 °F - 66.2 °F 100% 29.71 in 8.0 mi North 17.3 mph 25.3 mph N/A   Overcast
12:29 PM 68.0 °F - 62.6 °F 83% 29.71 in 9.0 mi North 13.8 mph 20.7 mph N/A   Overcast
12:51 PM 69.1 °F - 61.0 °F 75% 29.70 in 10.0 mi North 16.1 mph - N/A   Overcast
1:13 PM 69.8 °F - 60.8 °F 73% 29.73 in 10.0 mi NNW 18.4 mph 25.3 mph N/A   Mostly Cloudy
1:51 PM 72.0 °F - 59.0 °F 64% 29.73 in 10.0 mi North 17.3 mph 28.8 mph N/A   Mostly Cloudy
2:51 PM 73.9 °F - 55.9 °F 53% 29.75 in 10.0 mi NNW 20.7 mph 25.3 mph N/A   Scattered Clouds
3:51 PM 75.0 °F - 55.9 °F 51% 29.76 in 10.0 mi NNW 19.6 mph 26.5 mph N/A   Scattered Clouds
4:51 PM 77.0 °F - 55.0 °F 47% 29.77 in 10.0 mi NNW 16.1 mph 27.6 mph N/A   Scattered Clouds
5:51 PM 77.0 °F - 55.9 °F 48% 29.78 in 10.0 mi NNW 15.0 mph 23.0 mph N/A   Mostly Cloudy
6:51 PM 77.0 °F - 52.0 °F 42% 29.78 in 10.0 mi NNW 17.3 mph 23.0 mph N/A   Partly Cloudy
7:51 PM 75.9 °F - 52.0 °F 43% 29.80 in 10.0 mi NNW 15.0 mph 24.2 mph N/A   Scattered Clouds
8:51 PM 75.0 °F - 51.1 °F 43% 29.82 in 10.0 mi NW 9.2 mph - N/A   Mostly Cloudy
9:51 PM 72.0 °F - 54.0 °F 53% 29.84 in 10.0 mi North 5.8 mph - N/A   Partly Cloudy
10:51 PM 70.0 °F - 55.0 °F 59% 29.86 in 10.0 mi North 3.5 mph - N/A   Clear
11:51 PM 68.0 °F - 57.0 °F 68% 29.88 in 10.0 mi North 3.5 mph - N/A   Mostly Cloudy